Butte, MT

7:15 PM MST on February 27, 2017 (GMT -0700)
Mooney

Weather History for KBTM - August, 2014

Change the Weather History Date:

Tuesday, August 26, 2014

  Actual Average Record
Temperature  
Mean Temperature 57 °F 59 °F  
Max Temperature 73 °F 77 °F 91 °F (1981)
Min Temperature 41 °F 42 °F 26 °F (1992)
Degree Days  
Heating Degree Days 8 6  
Month to date heating degree days 97 93  
Since 1 June heating degree days 485 480  
Since 1 July heating degree days 132 193  
Cooling Degree Days 0 0  
Month to date cooling degree days 16 24  
Year to date cooling degree days 77 75  
Since 1 June cooling degree days 77 75  
Growing Degree Days 7 (Base 50)    
Moisture  
Dew Point 43 °F    
Average Humidity 64    
Maximum Humidity 96    
Minimum Humidity 31    
Precipitation  
Precipitation 0.00 in 0.04 in 0.63 in (1993)
Month to date precipitation 2.93 1.14  
Year to date precipitation 11.33 9.66  
Sea Level Pressure  
Sea Level Pressure 30.11 in    
Wind  
Wind Speed 4 mph (SE)    
Max Wind Speed 10 mph    
Max Gust Speed 14 mph    
Visibility 10 miles    
Events      
T = Trace of Precipitation, MM = Missing Value Source: NWS Daily Summary

Daily Weather History Graph

Daily Weather History Graph

Search for Another Location

Airport or City:

Trip Planner

Search our weather history database for the weather conditions in past years. The results will help you decide how hot, cold, wet, or windy it might be!

Date:

Astronomy

Aug. 26, 2014 Rise Set
Actual Time 6:43 AM MDT 8:19 PM MDT
Civil Twilight 6:12 AM MDT 8:50 PM MDT
Nautical Twilight 5:33 AM MDT 9:28 PM MDT
Astronomical Twilight 4:52 AM MDT 10:09 PM MDT
Moon 7:53 AM MDT (8/26) 8:35 PM MDT (8/26)
Length of Visible Light 14h 38m
Length of Day
13h 35m
New Moon, 1% of the Moon is Illuminated
Aug 26
New Moon
Sep 2
First Quarter
Sep 8
Full
Sep 15
Last Quarter
Sep 24
New

Hourly Weather History & Observations

Time (MDT) Temp. Windchill Dew Point Humidity Pressure Visibility Wind Dir Wind Speed Gust Speed Precip Events Conditions
12:53 AM 52.0 °F - 45.0 °F 77% 30.08 in 10.0 mi East 3.5 mph - N/A   Overcast
1:53 AM 52.0 °F - 46.0 °F 80% 30.08 in 10.0 mi Calm Calm - N/A   Overcast
2:53 AM 50.0 °F - 44.6 °F 82% 30.17 in 10.0 mi Calm Calm - N/A   Partly Cloudy
3:53 AM 46.0 °F 43.9 °F 43.0 °F 89% 30.10 in 10.0 mi SE 4.6 mph - N/A   Clear
4:53 AM 45.0 °F 42.6 °F 42.1 °F 90% 30.11 in 10.0 mi SSE 4.6 mph - N/A   Clear
5:53 AM 42.1 °F 39.2 °F 41.0 °F 96% 30.13 in 10.0 mi SE 4.6 mph - N/A   Clear
6:53 AM 42.1 °F 38.4 °F 39.9 °F 92% 30.14 in 10.0 mi SE 5.8 mph - N/A   Clear
7:53 AM 42.1 °F 39.2 °F 39.9 °F 92% 30.16 in 10.0 mi SE 4.6 mph - N/A   Clear
8:53 AM 48.2 °F - 42.8 °F 82% 30.24 in 10.0 mi ESE 3.5 mph - N/A   Clear
9:53 AM 54.0 °F - 45.0 °F 72% 30.17 in 10.0 mi Calm Calm - N/A   Clear
10:53 AM 60.1 °F - 45.0 °F 57% 30.15 in 10.0 mi North 3.5 mph - N/A   Clear
11:53 AM 64.9 °F - 42.1 °F 43% 30.13 in 10.0 mi North 5.8 mph - N/A   Clear
12:53 PM 66.0 °F - 41.0 °F 40% 30.10 in 10.0 mi Calm Calm - N/A   Clear
1:53 PM 69.1 °F - 39.9 °F 35% 30.08 in 10.0 mi Calm Calm - N/A   Clear
2:53 PM 71.1 °F - 41.0 °F 34% 30.07 in 10.0 mi Variable 3.5 mph - N/A   Clear
3:53 PM 70.0 °F - 41.0 °F 35% 30.08 in 10.0 mi West 5.8 mph - N/A   Partly Cloudy
4:53 PM 71.1 °F - 39.9 °F 32% 30.07 in 10.0 mi Variable 4.6 mph - N/A   Clear
5:53 PM 70.0 °F - 41.0 °F 35% 30.07 in 10.0 mi Calm Calm - N/A   Partly Cloudy
6:53 PM 72.0 °F - 39.9 °F 31% 30.06 in 10.0 mi Calm Calm - N/A   Clear
7:53 PM 66.9 °F - 43.0 °F 42% 30.08 in 10.0 mi WNW 5.8 mph - N/A   Clear
8:53 PM 63.0 °F - 46.0 °F 54% 30.10 in 10.0 mi SE 3.5 mph - N/A   Clear
9:53 PM 55.0 °F - 46.9 °F 74% 30.12 in 10.0 mi SE 8.1 mph - N/A   Clear
10:53 PM 53.1 °F - 46.0 °F 77% 30.12 in 10.0 mi SSE 5.8 mph - N/A   Clear
11:53 PM 50.0 °F - 45.0 °F 83% 30.11 in 10.0 mi SE 5.8 mph - N/A   Clear